Terug naar catalogus

STARLINK-30967

ActiefCommunicatieVLEO
NORAD 58416·PAYLOAD·🇺🇸 United States

Gelanceerd Nov 22, 2023 vanaf Cape Canaveral Space Force Station

Loading…

Volgende Passages (komende 24 uur)

TLE

VersSource: CelesTrak SupGP

Epoch: Sep 15, 2026, 02:43 UTC

1 58416C 23180Q   26258.11368056 -.00062225  00000+0 -22534-2 0  2585
2 58416  43.0024  62.7818 0001548 263.8745 175.0161 15.27614623    13

Volg STARLINK-30967 in realtime met AllMySat

Download on the App Store